This is the latest recevied weather packets stored in our database for station/object N8QQQ. If no packets are shown the sender has not sent any weather packets the latest 10 day(s).
| Time | Temp. | Humidity | Pressure | Rain* | Wind** | Luminosity | Snow |
|---|---|---|---|---|---|---|---|
| 1777660818 | 2.22° C | 59% | 1016.5 hPa | 0 mm | - | 110 W/m² | - |
| 1777660515 | 2.78° C | 57% | 1016.6 hPa | 0 mm | - | 121 W/m² | - |
| 1777660211 | 2.78° C | 57% | 1016.8 hPa | 0 mm | - | 111 W/m² | - |
| 1777659908 | 2.78° C | 57% | 1016.7 hPa | 0 mm | - | 118 W/m² | - |
| 1777659605 | 2.78° C | 58% | 1016.7 hPa | 0 mm | - | 128 W/m² | - |
| 1777659302 | 2.78° C | 59% | 1017 hPa | 0 mm | - | 118 W/m² | - |
| 1777658999 | 2.78° C | 58% | 1016.7 hPa | 0 mm | - | 125 W/m² | - |
| 1777658696 | 2.78° C | 58% | 1016.8 hPa | 0 mm | - | 131 W/m² | - |
| 1777658392 | 2.78° C | 58% | 1016.7 hPa | 0 mm | - | 107 W/m² | - |
| 1777658089 | 2.78° C | 58% | 1016.7 hPa | 0 mm | - | 125 W/m² | - |
| 1777657786 | 2.78° C | 58% | 1016.8 hPa | 0 mm | - | 125 W/m² | - |
| 1777657484 | 2.78° C | 61% | 1016.6 hPa | 0 mm | - | 154 W/m² | - |
| 1777657181 | 2.78° C | 62% | 1016.6 hPa | 0 mm | - | 161 W/m² | - |
| 1777656878 | 2.78° C | 64% | 1016.5 hPa | 0 mm | - | 167 W/m² | - |
| 1777656574 | 2.22° C | 63% | 1016.5 hPa | 0 mm | - | 162 W/m² | - |
| 1777656270 | 2.22° C | 64% | 1016.7 hPa | 0 mm | - | 134 W/m² | - |
| 1777655966 | 2.22° C | 67% | 1016.6 hPa | 0 mm | - | 127 W/m² | - |
| 1777655662 | 2.22° C | 64% | 1016.6 hPa | 0 mm | - | 105 W/m² | - |
| 1777655359 | 2.22° C | 65% | 1016.5 hPa | 0 mm | - | 146 W/m² | - |
| 1777655056 | 2.22° C | 67% | 1016.8 hPa | 0 mm | - | 142 W/m² | - |
| 1777654754 | 2.22° C | 66% | 1016.7 hPa | 0 mm | - | 122 W/m² | - |
| 1777654451 | 2.22° C | 69% | 1016.6 hPa | 0 mm | - | 113 W/m² | - |
| 1777654149 | 1.67° C | 70% | 1016.5 hPa | 0 mm | - | 104 W/m² | - |
| 1777653846 | 1.67° C | 68% | 1016.6 hPa | 0 mm | - | 98 W/m² | - |
| 1777653543 | 1.67° C | 72% | 1016.6 hPa | 0 mm | - | 96 W/m² | - |
* Rain latest hour (hover to see other rain measurements)
** Current wind speed in m/s (hover to see current wind gust speed)